Regional Weather Roundup
Issued by NWS Glasgow, MT

Home | Current Version | Previous Version | Text Only | Print | Product List | Glossary On
Versions: 1 2 3 4 5 6 7 8 9 10 11 12 13 14 15 16 17 18 19 20 21 22 23 24 25 26 27 28 29 30 31 32 33 34 35 36 37 38 39 40 41 42 43 44 45 46 47 48 49 50
000
ASUS45 KGGW 311915
RWRGGW
HOURLY REGIONAL WEATHER ROUNDUP FOR NORTHEAST MONTANA
NATIONAL WEATHER SERVICE GLASGOW MONTANA
100 PM MDT FRI JUL 31 2015

NOTE: "FAIR" INDICATES FEW OR NO CLOUDS BELOW 12,000 FEET WITH NO
SIGNIFICANT WEATHER AND/OR OBSTRUCTIONS TO VISISBILITY.

NORTHEAST MONTANA


CITY           SKY/WX    TMP DP  RH WIND       PRES   REMARKS
GLASGOW        SUNNY     88  41  19 S10       30.10F
PLENTYWOOD       N/A     83  44  25 N3          N/A
WOLF POINT     SUNNY     89  43  20 SE3       30.10F
JORDAN           N/A     92  38  15 VRB7G18   30.09F
WINNETT          N/A     90  34  13 W3G12       N/A
SIDNEY         SUNNY    N/A N/A N/A E6        30.11F
GLENDIVE       SUNNY     88  43  20 E6        30.14F
MALTA            N/A     91  47  21 S5          N/A
SCOBEY           N/A     83  46  27 N5        30.12F

FORT PECK REPORTS


CITY           SKY/WX    TMP DP  RH WIND       PRES   REMARKS
FORT PECK        N/A     84  52  33 S3          N/A
THE PINES        N/A     85  48  27 NE6         N/A

SOUTHEAST MONTANA


CITY           SKY/WX    TMP DP  RH WIND       PRES   REMARKS
BILLINGS       MOSUNNY   86  43  22 S7        30.18F
MILES CITY     SUNNY     92  42  17 SE7G16    30.11F
BAKER          SUNNY     89  39  17 S7        30.18F
LIVINGSTON     SUNNY     90  34  13 W16       30.23F

CENTRAL MONTANA


CITY           SKY/WX    TMP DP  RH WIND       PRES   REMARKS
HAVRE          SUNNY     87  47  24 VRB5      30.10F
LEWISTOWN      SUNNY     87  36  16 NW9       30.20F
GREAT FALLS    SUNNY     87  33  14 MISG      30.18F
CUT BANK       SUNNY     87  29  12 VRB5      30.17F
HELENA         SUNNY     85  45  24 NE6       30.21F
BUTTE          SUNNY     82  27  13 NW8       30.33F
BOZEMAN        SUNNY     85  44  23 E3        30.26F

WESTERN MONTANA


CITY           SKY/WX    TMP DP  RH WIND       PRES   REMARKS
MISSOULA       SUNNY     80  40  23 SW5       30.20F
KALISPELL      NOT AVBL

NORTH DAKOTA


CITY           SKY/WX    TMP DP  RH WIND       PRES   REMARKS
WILLISTON      SUNNY     85  47  26 VRB6      30.13F
DICKINSON      SUNNY     86  41  20 N7        30.14F
MINOT          SUNNY     81  50  33 NW10G21   30.10S
BISMARCK       SUNNY     88  52  29 NW9G20    30.10F

SOUTHERN SASKATCHEWAN


CITY           SKY/WX    TMP DP  RH WIND       PRES   REMARKS
REGINA         MOSUNNY   77  46  33 SW2       30.13F
MOOSE JAW      MOSUNNY   75  50  41 NW2       30.14F
ESTEVAN        MOSUNNY   79  46  31 NW8G20    30.13
SWIFT CURRENT  SUNNY     77  50  38 E12G18    30.13F




USA.gov is the U.S. government's official web portal to all federal, state and local government web resources and services.